�N����,����,�~����,�C��,���x,�C��,����,���ϕ���,�ő�u�ԕ���,�ő厞����,���˗�,�I�_���x,�n�����x,�ő啗���N��,DTYPE
"23/10/01","00:10",0.0,23.4,90.1,1001.9,149.1,0.2,0.8,168.6,0.00,21.7,23.9,"00:00:48",1
"23/10/01","00:20",0.0,23.4,90.4,1001.7,336.6,0.8,1.3,346.8,0.00,21.8,24.1,"00:11:44",1
"23/10/01","00:30",0.0,23.3,90.7,1001.7,253.8,0.2,1.0,335.5,0.00,21.7,23.8,"00:21:04",1
"23/10/01","00:40",0.0,23.2,91.0,1001.7,226.0,0.2,0.9,244.6,0.00,21.7,23.8,"00:36:08",1
"23/10/01","00:50",0.0,23.3,91.2,1001.5,294.2,0.6,1.2,291.2,0.00,21.8,23.8,"00:47:12",1
"23/10/01","01:00",0.0,23.2,91.4,1001.9,299.6,0.6,1.1,304.2,0.00,21.8,23.8,"00:51:20",1
"23/10/01","01:10",0.0,23.3,91.7,1002.2,292.2,0.7,1.2,317.4,0.00,21.9,23.8,"01:06:00",1
"23/10/01","01:20",0.0,23.0,91.9,1002.2,326.7,0.6,1.8,345.9,0.00,21.7,23.9,"01:19:12",1
"23/10/01","01:30",0.0,22.5,91.8,1001.7,349.2,1.5,4.3,338.4,0.00,21.1,23.7,"01:25:20",1
"23/10/01","01:40",0.0,22.0,91.8,1002.4,343.2,1.3,3.3,359.4,0.00,20.6,23.8,"01:39:04",1
"23/10/01","01:50",0.0,22.0,91.3,1002.2,321.4,1.5,3.5,344.6,0.00,20.6,23.8,"01:43:20",1
"23/10/01","02:00",0.0,22.2,90.7,1002.4,339.1,2.0,4.2,339.6,0.00,20.6,23.8,"01:52:16",1
"23/10/01","02:10",0.0,22.2,90.4,1002.6,343.2,1.8,4.4,349.3,0.00,20.6,23.7,"02:02:24",1
"23/10/01","02:20",1.6,22.2,90.3,1002.4,342.2,1.7,4.2,344.1,0.00,20.6,23.7,"02:13:04",1
"23/10/01","02:30",0.8,21.9,90.5,1002.4,11.2,1.1,2.2,35.0,0.00,20.3,23.7,"02:29:44",1
"23/10/01","02:40",1.6,21.7,90.9,1002.4,14.5,1.1,2.2,3.6,0.00,20.2,23.4,"02:32:48",1
"23/10/01","02:50",0.4,21.5,91.2,1002.2,324.4,0.7,1.8,36.2,0.00,20.0,23.7,"02:42:16",1
"23/10/01","03:00",0.0,21.5,91.5,1002.4,316.2,0.5,1.2,349.9,0.00,20.1,23.7,"02:59:44",1
"23/10/01","03:10",0.0,21.6,91.9,1002.4,334.5,1.3,2.4,350.8,0.00,20.3,23.7,"03:05:52",1
"23/10/01","03:20",0.0,21.5,92.2,1002.2,324.4,1.1,2.6,346.4,0.00,20.2,23.4,"03:16:00",1
"23/10/01","03:30",0.2,21.5,92.4,1002.4,352.2,0.5,1.6,346.3,0.00,20.3,23.5,"03:23:04",1
"23/10/01","03:40",0.0,21.4,92.6,1002.4,237.7,0.2,0.6,320.5,0.00,20.2,23.4,"03:30:56",1
"23/10/01","03:50",0.0,21.5,92.9,1002.6,2.2,0.6,1.3,333.0,0.00,20.3,23.6,"03:46:32",1
"23/10/01","04:00",0.2,21.5,93.0,1002.4,326.4,0.7,1.2,329.2,0.00,20.4,23.3,"03:56:16",1
"23/10/01","04:10",0.0,21.3,93.1,1002.6,309.5,0.5,0.9,329.6,0.00,20.2,23.5,"04:03:28",1
"23/10/01","04:20",0.0,21.2,93.3,1002.6,287.3,0.1,0.4,300.3,0.00,20.1,23.5,"04:10:56",1
"23/10/01","04:30",0.0,21.3,93.5,1002.4,292.4,0.6,1.1,309.3,0.00,20.2,23.4,"04:27:36",1
"23/10/01","04:40",0.0,21.3,93.5,1002.9,300.2,0.5,0.8,303.3,0.00,20.2,23.3,"04:34:08",1
"23/10/01","04:50",0.0,21.4,93.7,1002.6,241.7,0.6,1.1,239.2,0.00,20.4,23.5,"04:46:00",1
"23/10/01","05:00",0.0,21.4,93.8,1002.6,303.0,0.7,1.3,333.4,0.00,20.4,23.3,"04:59:12",1
"23/10/01","05:10",0.2,21.2,93.9,1002.6,324.5,1.1,1.9,346.7,0.00,20.2,23.3,"05:04:32",1
"23/10/01","05:20",0.0,21.2,94.1,1002.9,304.7,0.7,1.6,331.8,0.00,20.3,23.4,"05:19:12",1
"23/10/01","05:30",0.0,21.1,94.2,1002.9,295.4,0.6,1.1,321.3,0.00,20.2,23.2,"05:20:40",1
"23/10/01","05:40",0.0,21.1,94.3,1002.9,288.8,0.6,1.1,298.8,0.00,20.2,23.4,"05:36:16",1
"23/10/01","05:50",1.2,21.1,94.4,1003.1,316.8,0.6,1.0,337.7,0.00,20.2,23.2,"05:47:28",1
"23/10/01","06:00",0.0,21.0,94.5,1002.9,317.9,0.6,1.1,327.5,0.00,20.1,23.0,"05:51:20",1
"23/10/01","06:10",0.0,21.1,94.6,1003.4,294.3,0.7,1.2,239.5,0.00,20.2,23.3,"06:09:44",1
"23/10/01","06:20",0.2,21.1,94.7,1003.4,238.5,1.1,1.7,240.7,0.00,20.3,23.3,"06:10:08",1
"23/10/01","06:30",0.0,21.1,94.8,1003.4,224.6,1.0,2.0,226.8,0.00,20.3,23.2,"06:21:52",1
"23/10/01","06:40",0.2,21.1,94.9,1003.6,292.9,0.6,1.1,319.0,0.00,20.3,23.3,"06:37:28",1
"23/10/01","06:50",0.0,21.2,94.9,1003.8,343.3,0.7,1.7,323.7,0.00,20.4,23.3,"06:43:20",1
"23/10/01","07:00",0.0,21.2,95.0,1003.8,336.4,0.6,1.1,340.2,0.00,20.4,23.2,"06:51:12",1
"23/10/01","07:10",0.2,21.1,95.1,1003.8,345.7,0.6,1.6,333.8,0.00,20.3,23.2,"07:02:16",1
"23/10/01","07:20",0.0,21.2,95.2,1003.6,348.9,0.6,1.2,32.7,0.00,20.4,23.2,"07:11:12",1
"23/10/01","07:30",0.0,21.1,95.3,1003.6,336.9,0.8,1.8,346.9,0.01,20.4,23.4,"07:25:12",1
"23/10/01","07:40",0.0,21.1,95.3,1003.8,330.6,1.0,1.7,334.2,0.01,20.4,23.3,"07:31:44",1
"23/10/01","07:50",0.0,21.1,95.4,1003.8,236.5,0.3,1.0,249.8,0.00,20.4,23.2,"07:43:44",1
"23/10/01","08:00",0.0,21.1,95.4,1004.3,215.1,0.7,1.4,197.7,0.00,20.4,23.4,"07:56:32",1
"23/10/01","08:10",0.0,21.2,95.4,1004.8,218.0,0.7,1.4,192.6,0.01,20.5,23.1,"08:00:48",1
"23/10/01","08:20",0.0,21.4,95.4,1004.8,217.3,0.2,1.1,112.6,0.01,20.7,23.2,"08:12:24",1
"23/10/01","08:30",0.0,21.4,95.4,1004.5,164.7,0.6,1.6,13.8,0.03,20.7,23.1,"08:21:44",1
"23/10/01","08:40",0.0,21.5,95.5,1004.5,353.3,0.5,1.1,135.4,0.04,20.8,23.3,"08:31:20",1
"23/10/01","08:50",0.0,21.6,95.6,1004.5,319.3,1.1,1.7,342.2,0.05,20.9,23.2,"08:43:44",1
"23/10/01","09:00",0.0,21.7,95.6,1004.5,324.1,1.2,2.2,338.2,0.07,21.0,23.2,"08:55:52",1
"23/10/01","09:10",0.0,21.8,95.6,1004.3,352.5,0.6,1.3,353.1,0.09,21.1,23.3,"09:04:40",1
"23/10/01","09:20",0.0,22.1,95.6,1004.1,331.3,0.5,1.3,324.5,0.16,21.4,23.2,"09:14:00",1
"23/10/01","09:30",0.0,22.4,95.5,1004.3,351.0,0.5,1.1,325.7,0.18,21.7,23.2,"09:29:12",1
"23/10/01","09:40",0.0,22.7,95.4,1003.8,315.4,0.5,1.0,318.3,0.18,22.0,23.1,"09:30:08",1
"23/10/01","09:50",0.0,22.6,94.8,1004.3,244.2,0.8,1.9,212.4,0.16,21.8,23.2,"09:49:44",1
"23/10/01","10:00",0.0,22.4,95.0,1004.3,222.2,0.6,1.7,119.6,0.09,21.6,23.1,"09:52:56",1
"23/10/01","10:10",0.0,23.1,94.9,1004.3,189.2,0.6,1.6,100.7,0.28,22.3,23.2,"10:04:48",1
"23/10/01","10:20",0.0,23.6,94.5,1004.1,276.4,0.6,1.3,240.4,0.33,22.7,23.1,"10:14:56",1
"23/10/01","10:30",0.0,23.8,93.6,1003.8,150.7,0.6,1.4,131.6,0.33,22.7,23.3,"10:25:52",1
"23/10/01","10:40",0.0,23.7,92.4,1003.8,249.9,0.7,2.7,223.6,0.51,22.4,23.4,"10:38:56",1
"23/10/01","10:50",0.0,24.0,91.2,1003.8,205.2,0.7,2.5,206.8,0.34,22.5,23.4,"10:46:56",1
"23/10/01","11:00",0.0,24.5,88.5,1003.8,187.9,1.1,2.6,232.2,0.29,22.5,23.5,"10:54:32",1
"23/10/01","11:10",0.0,24.9,85.1,1003.6,269.0,0.7,1.9,302.5,0.25,22.3,23.6,"11:08:16",1
"23/10/01","11:20",0.0,25.6,81.4,1003.1,289.3,1.0,3.4,241.1,0.41,22.2,23.3,"11:14:56",1
"23/10/01","11:30",0.0,26.8,75.9,1003.1,288.7,1.1,2.7,353.9,0.47,22.2,23.5,"11:21:04",1
"23/10/01","11:40",0.0,27.2,72.0,1003.1,261.9,1.2,2.8,240.1,0.40,21.8,23.6,"11:32:48",1
"23/10/01","11:50",0.0,26.8,69.0,1002.9,258.2,1.6,4.7,239.4,0.31,20.7,24.0,"11:48:32",1
"23/10/01","12:00",0.0,27.0,69.3,1002.9,288.8,1.5,4.2,335.5,0.31,20.9,23.6,"11:57:44",1
"23/10/01","12:10",0.0,26.8,69.6,1002.2,279.9,1.7,4.0,207.1,0.28,20.8,23.8,"12:06:32",1
"23/10/01","12:20",0.0,26.7,68.4,1002.4,278.6,1.7,4.7,354.5,0.25,20.4,24.0,"12:15:36",1
"23/10/01","12:30",0.0,26.6,68.6,1001.9,268.2,1.6,4.3,235.4,0.20,20.4,24.0,"12:24:40",1
"23/10/01","12:40",0.0,26.7,69.0,1001.9,272.2,1.1,3.4,235.0,0.15,20.6,24.0,"12:31:44",1
"23/10/01","12:50",0.0,26.9,69.6,1001.7,271.9,1.3,4.1,209.4,0.20,20.9,24.1,"12:48:48",1
"23/10/01","13:00",0.0,26.9,69.0,1001.7,319.2,1.0,2.5,336.5,0.19,20.8,24.0,"12:56:32",1
"23/10/01","13:10",0.0,26.7,68.3,1001.7,262.2,0.7,2.2,344.7,0.11,20.4,24.1,"13:07:36",1
"23/10/01","13:20",0.0,27.0,68.6,1002.2,246.8,0.7,2.0,212.3,0.18,20.8,24.0,"13:11:20",1
"23/10/01","13:30",0.0,27.4,67.1,1001.7,281.3,1.3,3.2,211.9,0.23,20.8,24.1,"13:26:40",1
"23/10/01","13:40",0.0,27.1,63.8,1001.7,224.9,2.0,4.2,208.0,0.20,19.7,24.1,"13:38:48",1
"23/10/01","13:50",0.0,27.1,64.3,1001.7,237.7,1.2,3.9,231.8,0.15,19.8,24.3,"13:42:08",1
"23/10/01","14:00",0.0,27.2,63.3,1001.7,245.2,1.3,2.9,333.6,0.14,19.7,24.3,"13:54:56",1
"23/10/01","14:10",0.0,27.0,62.6,1001.7,302.8,1.2,3.9,346.0,0.12,19.3,24.2,"14:04:16",1
"23/10/01","14:20",0.0,26.8,63.0,1001.5,310.9,1.1,2.8,255.5,0.08,19.2,24.2,"14:13:20",1
"23/10/01","14:30",0.0,26.4,61.8,1001.7,340.4,1.7,4.4,340.9,0.06,18.5,24.2,"14:29:28",1
"23/10/01","14:40",0.0,26.4,62.4,1002.4,323.7,1.5,2.8,344.7,0.04,18.7,24.4,"14:31:28",1
"23/10/01","14:50",0.0,26.3,64.4,1001.9,328.7,1.0,2.4,348.2,0.03,19.1,24.4,"14:47:04",1
"23/10/01","15:00",0.0,26.0,67.0,1002.2,322.4,1.3,1.9,338.6,0.05,19.4,24.2,"14:53:36",1
"23/10/01","15:10",0.0,25.8,68.8,1002.2,338.7,1.7,2.7,342.4,0.05,19.7,24.0,"15:06:56",1
"23/10/01","15:20",0.0,25.8,68.7,1002.4,337.0,1.5,2.8,328.2,0.07,19.7,24.1,"15:16:08",1
"23/10/01","15:30",0.0,25.6,65.9,1002.6,347.1,1.6,2.9,359.7,0.07,18.8,24.4,"15:26:08",1
"23/10/01","15:40",0.0,25.9,65.1,1002.2,340.3,1.3,2.8,343.5,0.06,18.9,24.3,"15:30:24",1
"23/10/01","15:50",0.0,26.2,63.6,1002.2,308.1,1.0,1.8,341.8,0.09,18.8,24.2,"15:42:40",1
"23/10/01","16:00",0.0,26.4,62.7,1002.4,299.9,1.1,2.4,336.9,0.09,18.8,24.2,"15:59:28",1
"23/10/01","16:10",0.0,26.6,62.0,1002.4,321.3,0.8,1.8,346.4,0.09,18.8,24.2,"16:08:16",1
"23/10/01","16:20",0.0,26.8,61.6,1002.4,289.7,0.7,1.4,344.4,0.07,18.8,24.2,"16:16:40",1
"23/10/01","16:30",0.0,26.4,63.9,1002.4,329.5,1.0,2.1,355.1,0.04,19.1,24.4,"16:24:48",1
"23/10/01","16:40",0.0,25.9,66.8,1002.4,341.2,1.1,2.0,352.9,0.02,19.3,24.3,"16:39:52",1
"23/10/01","16:50",0.0,25.3,67.3,1002.6,337.4,1.5,3.2,349.1,0.03,18.8,24.3,"16:45:36",1
"23/10/01","17:00",0.0,25.0,67.3,1003.1,347.3,1.7,3.1,359.8,0.01,18.6,24.3,"16:52:24",1
"23/10/01","17:10",0.0,24.7,68.2,1003.4,347.4,1.6,3.5,350.3,0.00,18.5,24.2,"17:04:16",1
"23/10/01","17:20",0.0,24.6,69.6,1003.4,358.3,1.2,2.2,346.8,0.00,18.7,24.1,"17:19:28",1
"23/10/01","17:30",0.0,24.1,70.0,1003.4,348.2,1.3,3.4,357.4,0.00,18.3,24.4,"17:26:16",1
"23/10/01","17:40",0.0,23.9,70.2,1003.8,0.3,0.8,1.8,22.1,0.00,18.2,24.1,"17:34:00",1
"23/10/01","17:50",0.0,23.6,70.2,1004.1,319.3,1.0,2.4,293.1,0.00,17.9,24.2,"17:48:32",1
"23/10/01","18:00",0.0,23.5,70.7,1003.8,316.4,1.0,2.6,338.9,0.00,17.9,24.2,"17:53:12",1
"23/10/01","18:10",0.0,23.3,69.8,1004.1,315.8,1.7,2.8,279.5,0.00,17.5,24.1,"18:06:48",1
"23/10/01","18:20",0.0,23.2,69.4,1003.8,310.5,1.6,2.9,303.4,0.00,17.3,24.0,"18:14:48",1
"23/10/01","18:30",0.0,23.1,69.3,1004.1,327.2,1.8,3.3,326.3,0.00,17.2,24.1,"18:22:16",1
"23/10/01","18:40",0.0,23.0,69.7,1004.1,328.4,1.7,2.7,336.5,0.00,17.2,24.1,"18:38:16",1
"23/10/01","18:50",0.0,22.9,69.9,1004.3,316.1,1.7,3.2,317.6,0.00,17.2,23.9,"18:46:32",1
"23/10/01","19:00",0.0,23.0,69.7,1004.3,324.9,2.0,5.0,341.4,0.00,17.2,24.0,"18:50:32",1
"23/10/01","19:10",0.0,23.0,69.9,1004.8,323.6,2.2,4.5,322.0,0.00,17.3,23.9,"19:05:28",1
"23/10/01","19:20",0.0,22.9,70.1,1004.5,323.6,2.0,3.7,326.7,0.00,17.2,23.8,"19:13:52",1
"23/10/01","19:30",0.0,22.7,70.6,1004.8,319.4,1.7,5.1,339.7,0.00,17.1,23.9,"19:21:52",1
"23/10/01","19:40",0.0,22.6,71.2,1005.0,304.3,1.7,4.9,343.6,0.00,17.2,23.7,"19:38:00",1
"23/10/01","19:50",0.0,22.5,71.8,1004.8,307.9,1.8,4.7,338.0,0.00,17.2,23.7,"19:47:04",1
"23/10/01","20:00",0.0,22.3,72.1,1005.5,322.1,1.7,3.1,280.1,0.00,17.1,23.8,"19:50:08",1
"23/10/01","20:10",0.0,22.0,72.9,1005.2,322.6,1.2,2.8,339.0,0.00,17.0,23.7,"20:06:48",1
"23/10/01","20:20",0.0,22.1,72.7,1006.0,315.6,2.0,4.7,359.1,0.00,17.0,23.7,"20:12:00",1
"23/10/01","20:30",0.0,22.1,71.8,1005.7,325.3,2.0,5.1,331.5,0.00,16.8,23.7,"20:28:40",1
"23/10/01","20:40",0.0,22.0,71.4,1005.7,278.3,1.7,4.3,235.3,0.00,16.6,23.4,"20:31:04",1
"23/10/01","20:50",0.0,21.9,71.0,1005.7,288.9,1.5,3.5,342.2,0.00,16.4,23.5,"20:46:56",1
"23/10/01","21:00",0.0,21.8,70.6,1005.7,302.8,1.8,3.9,256.5,0.00,16.3,23.6,"20:54:32",1
"23/10/01","21:10",0.0,21.7,70.4,1006.0,330.7,1.2,2.5,320.3,0.00,16.1,23.5,"21:01:28",1
"23/10/01","21:20",0.0,21.3,71.2,1005.7,270.7,0.8,2.4,213.6,0.00,15.9,23.3,"21:19:04",1
"23/10/01","21:30",0.0,20.9,72.1,1006.0,290.4,0.8,2.6,343.9,0.00,15.7,23.4,"21:29:04",1
"23/10/01","21:40",0.0,21.0,71.9,1006.0,278.9,1.2,2.8,13.7,0.00,15.8,23.2,"21:36:00",1
"23/10/01","21:50",0.0,20.9,71.4,1006.2,215.4,0.7,1.7,222.2,0.00,15.6,23.4,"21:40:48",1
"23/10/01","22:00",0.0,20.3,72.3,1005.7,242.1,0.8,2.0,324.0,0.00,15.2,23.2,"21:57:36",1
"23/10/01","22:10",0.0,20.8,71.3,1006.0,283.2,1.6,4.3,242.7,0.00,15.5,23.2,"22:01:20",1
"23/10/01","22:20",0.0,20.8,71.1,1006.0,318.7,1.1,3.7,344.1,0.00,15.4,23.3,"22:13:20",1
"23/10/01","22:30",0.0,20.4,72.0,1006.0,321.9,1.1,2.2,323.9,0.00,15.2,23.1,"22:21:44",1
"23/10/01","22:40",0.0,20.4,71.5,1006.2,323.6,1.8,3.5,327.3,0.00,15.1,23.1,"22:32:48",1
"23/10/01","22:50",0.0,20.4,70.4,1006.4,305.3,1.2,2.5,345.5,0.00,14.9,22.9,"22:44:24",1
"23/10/01","23:00",0.0,20.0,70.9,1006.4,326.8,1.3,1.8,334.2,0.00,14.6,22.9,"22:56:08",1
"23/10/01","23:10",0.0,19.8,72.3,1006.2,322.1,1.6,3.1,333.0,0.00,14.7,22.9,"23:04:32",1
"23/10/01","23:20",0.0,19.7,73.2,1006.2,310.6,1.2,2.4,313.0,0.00,14.8,23.1,"23:16:48",1
"23/10/01","23:30",0.0,19.4,74.1,1006.4,299.9,1.1,2.2,334.9,0.00,14.7,22.9,"23:20:08",1
"23/10/01","23:40",0.0,19.6,74.2,1006.2,300.9,1.5,3.4,336.3,0.00,14.9,22.7,"23:30:02",1
"23/10/01","23:50",0.0,19.6,74.3,1006.2,307.4,1.1,2.8,326.4,0.00,14.9,22.6,"23:45:36",1
"23/10/01","24:00",0.0,19.7,74.5,1006.4,302.4,1.2,2.9,311.4,0.00,15.1,22.6,"23:50:24",1
